sat.trackr.live / text

‹ back to catalog

COSMOS 2561

NORAD 54109 · 2022-137A

PAYLOAD ACTIVE UNKNOWN

§ Identity

Operator
Country
CIS
Launch date
2022-10-21
Launch site
PLMSC
Launch vehicle
Mass (kg)
RCS (m²)

External: N2YO · Heavens-Above · Gunter

§ Orbital elements

Epoch: 2026-09-20T05:09:05.700384Z

Period
92.67 min
Inclination
96.9077°
Eccentricity
0.0010533
Mean motion
15.53879702 rev/d
Perigee alt
398.3 km
Apogee alt
412.6 km
Semi-major
6,783.5 km
B*
1.6072e-4
RAAN
318.7499°
Arg perigee
42.0185°
Mean anomaly
318.1876°
Rev number
22,109

§ Raw data

COSMOS 25611 54109U 22137A   26263.21464931  .00010276  00000+0  16072-3 0  99972 54109  96.9077 318.7499 0010533  42.0185 318.1876 15.53879702221097

JSON: /api/v1/satellites/54109 · /tle

For live sub-satellite position, see the globe view (requires WebGL).

§ Visibility from observer

Set your observer location to see the next 7 days of passes ≥ 10°. The values pass through the URL so the page stays shareable.

No JS? Fill the form by hand. The geolocation button needs JavaScript.

§ Radio — SatNOGS DB

ModeDescriptionDownlinkUplink
FM S-band telemetry 2.280 GHz

1 transmitter · refreshed weekly from db.satnogs.org